www.pogodaiklimat.ru

Погода и климат >> Архив погоды >> Россия >> Алтайский край >> Чарышское


ПОГОДА в Чарышском

  • Прогноз погоды в Чарышском
  • Монитор погоды в Чарышском
  • Климат города

АРХИВ ПОГОДЫ в Чарышском

Время (UTC), дата Ветер
(напр.,м/с)
 
Видим.   Явления Облачность Т
(С)
Тd
(С)
f
(%)
Тe
(С)
Тes
(С)
Комфортность P
(гПа)
Po
(гПа)
Тmin
(С)
Tmax
(С)
R
(мм)
R24
(мм)
S
(см)
00 10.08 ЮВ 1 50 км 6/0
[Ac As]
+14.3 +8.8 69 +15 +15 1003.0 953.6 +14.3
03 10.08 СЗ 2 50 км 9/4 1000 м
[Cb cap Ac trans]
+19.7 +10.5 55 +22 +24 комфорт 1001.8 953.2
06 10.08 ЮЗ 1 50 км 10/0
[Ac und Cc]
+26.5 +11.7 40 +28 +34 жарко 999.3 952.0
09 10.08 СЗ 4 50 км 10/6 1000 м
[Cb cap Ac trans]
+22.6 +11.2 48 +25 +26 комфорт 1001.2 953.1
12 10.08 штиль 0
{10}
20 км слабый ливневой дождь 10/10 1000 м
[Cb cap]
+17.6 +15.1 85 +18 +18 1004.2 955.2 +28.2 0.7
15 10.08 СЗ 2 50 км {ливн. осадки} 8/0
[Ac trans]
+16.4 +14.4 88 +16 +16 1003.6 954.5
18 10.08 СЗ 1 50 км 8/0
[Ac trans]
+13.9 +12.7 92 +14 +14 1003.9 954.5
21 10.08 СЗ 1 50 км туман на расстоянии 6/0
[Ac trans]
+14.1 +13.0 93 +14 +14 1003.9 954.5
00 11.08 штиль 0 500 м туман ?/? +14.0 +13.0 94 +14 +14 1000.8 951.5 +13.6 0.7
03 11.08 В 1 50 км {туман} 8/0
[Ac trans Ci fib]
+17.8 +13.7 77 +19 +24 999.1 950.6
06 11.08 З 2 50 км {туман} 10/0
[Ac trans Ci fib]
+23.0 +15.1 61 +27 +35 душно 996.0 948.4
09 11.08 СЗ 2 50 км 4/0
[Ac trans]
+27.9 +15.3 46 +31 +38 душно 993.2 946.5
12 11.08 СЗ 2 50 км 4/0
[Ac trans]
+27.9 +15.3 46 +31 +32 душно 993.2 946.5
15 11.08 З 6 50 км 7 баллов +20.0 +16.0 78 +22 +22 комфорт 997.4 949.3
18 11.08 ЮВ 2 50 км 7 баллов +16.7 +15.4 92 +17 +17 999.4 950.7
21 11.08 ЮВ 5
{10}
50 км 3/1 1000 м
[Cb cap Ci fib]
+19.1 +10.2 56 +20 +20 998.6 950.1
00 12.08 Ю 2
{14}
50 км 9/5 1000 м
[Cb cap Ci fib]
+19.5 +9.8 53 +21 +21 комфорт 1000.7 952.2 +16.7 0.6
03 12.08 СЗ 2 50 км в посл. час ливневой дождь 9 баллов +18.2 +12.0 67 +19 +20 1004.8 956.0 +16.1
06 12.08 СЗ 3 10 км слабый ливневой дождь 10/8 1000 м
[Cb cap Ac cuf]
+14.9 +12.2 84 +14 +15 1008.9 959.2
09 12.08 ЮЗ 3 50 км {ливн. осадки} 8/4 1000 м
[Cb cap Ac cuf]
+16.9 +7.2 53 +17 +19 1011.3 961.8
12 12.08 Ю 2
{10}
50 км {ливн. осадки} 8/3 1000 м
[Cb cap Ac cuf Ci fib]
+15.1 +6.8 58 +15 +16 1013.8 963.9 +20.5 5
15 12.08 З 3 50 км 8/0
[Ac inh]
+11.4 +7.3 76 +10 +10 1016.8 966.2
18 12.08 С 2 50 км 9/3 1000 м
[Cb cap Ac inh]
+10.1 +6.4 78 +9 +9 1018.0 966.9
21 12.08 штиль 0 50 км 3/0
[Ac trans]
+6.7 +4.9 88 +6 +6 1019.0 967.4
00 13.08 штиль 0 20 км туман на расстоянии 3/0
[Ac inh Ci fib]
+4.9 +3.6 91 +4 +4 1019.6 967.6 +4.9
03 13.08 штиль 0 50 км 9/3 1000 м
[Sc Ac trans]
+11.1 +7.5 78 +11 +14 1018.7 967.8 +4.8
06 13.08 СЗ 2 50 км {ливн. осадки} 9/6 1000 м
[Cb cap Ac As]
+13.9 +6.3 60 +14 +16 1018.4 968.1
09 13.08 СЗ 2 50 км 9/9 1000 м
[Cb cap]
+14.1 +5.4 56 +14 +15 1018.6 968.3
12 13.08 Ю 1 50 км {ливн. осадки} 8/3 1000 м
[Cb cap Ac trans]
+13.9 +7.9 67 +14 +15 1018.7 968.4 +17.5 1
15 13.08 Ю 1 50 км 4/0
[Ac trans]
+8.6 +6.2 85 +8 +8 1020.5 969.2
18 13.08 штиль 0 50 км ясно +5.7 +4.5 92 +5 +5 1020.9 969.0
21 13.08 СЗ 1 10 км туман на расстоянии 3/0
[Ac trans]
+4.5 +3.5 93 +3 +3 1021.8 969.1
00 14.08 штиль 0 500 м туман ?/? +4.3 +3.4 94 +3 +3 1022.0 969.7 +4.3
03 14.08 В 1 50 км в посл. час туман 3/1 1000 м
[Cu med, cong Ac As]
+11.2 +7.8 80 +11 +17 1020.4 969.4
06 14.08 С 2 50 км {туман} 6/3 1000 м
[Cu med, cong Ac cast]
+16.8 +5.4 47 +17 +24 1017.9 968.1
09 14.08 З 2 4000 м 8/4 1000 м
[Cu med, cong Ac cast]
+18.8 +6.0 43 +20 +23 1016.8 967.3
12 14.08 СЗ 2 50 км 6/5 1000 м
[Sc Ac cuf]
+17.1 +6.8 51 +17 +18 1017.8 968.0 +19.9
15 14.08 СЗ 2 50 км 3/1 1000 м
[Sc Ac trans]
+12.7 +7.0 68 +12 +12 1019.0 968.5
18 14.08 ЮВ 1 50 км ясно +8.3 +5.8 84 +8 +8 1018.9 967.5
21 14.08 В 1 50 км ясно +5.7 +4.3 91 +4 +4 1018.5 966.7
00 15.08 штиль 0 50 км ясно +5.3 +4.2 93 +4 +5 1018.5 966.6 +5.1
03 15.08 штиль 0 50 км ясно +15.8 +8.5 62 +16 +25 1015.6 965.7
06 15.08 СЗ 3 50 км 3/0
[Ac cast Ci fib]
+20.1 +7.8 45 +21 +32 комфорт 1013.2 964.1
09 15.08 СЗ 4 50 км 4 балла +20.6 +7.9 44 +22 +26 комфорт 1012.9 964.0
12 15.08 СЗ 3
{10}
50 км 8/4 1000 м
[Sc Ac lent Ci fib]
+20.2 +7.6 44 +22 +22 комфорт 1013.1 964.0 +21.5
15 15.08 СЗ 3 50 км 4/0
[Ac trans Ci fib]
+15.4 +7.2 58 +15 +15 1014.8 964.9
18 15.08 СВ 1 50 км ясно +14.4 +7.3 62 +15 +15 1014.3 964.2
21 15.08 В 1 50 км 3/0
[Ac trans]
+9.0 +6.6 85 +8 +8 1014.7 963.7
00 16.08 штиль 0 50 км 4/0
[Ac cast]
+8.1 +6.1 87 +7 +7 1015.1 963.9 +7.7
03 16.08 штиль 0 50 км 4/0
[Ac cast]
+14.7 +8.5 66 +15 +21 1013.9 964.0
06 16.08 Ю 1 50 км 4/0 <50 м
[Ac cast]
+21.4 +9.5 47 +23 +34 комфорт 1011.6 962.9
09 16.08 СЗ 2 50 км 8/4 1000 м
[Cb cap Ac trans]
+21.1 +10.3 50 +23 +26 комфорт 1012.0 963.3
12 16.08 З 2 50 км 2 балла +20.4 +11.0 55 +23 +24 комфорт 1012.9 964.0 +22.7
15 16.08 штиль 0 50 км ясно +13.2 +10.5 84 +13 +13 1015.9 965.7
18 16.08 В 1 50 км ясно +10.6 +8.8 89 +10 +10 1015.9 965.1
21 16.08 В 1 н/о н/о +8.1 +7.0 93

 

Местоположение метеостанции Чарышское (Алтайский край, Россия): широта 51.38 долгота 83.58 высота над уровнем моря 429 м.

В архиве по умолчанию представлена погода в Чарышском за последнюю неделю. Архивные данные за месяц целиком и за предыдущие месяцы, начиная с января 2011 года, Вы можете получить, выбрав интересующий диапазон дат из раскрывающегося списка и нажав кнопку "Ввод!".

Внимание! Время в таблицах - всемирное. Для получения местного времени необходимо прибавить поправку, которая в Чарышском равна 7 ч.

Смотрите также архив погоды в соседних городах и на ближайших метеорологических станциях:

Погода в Солонешном (Алтайский край, Россия) (59 км)
Погода в Краснощеково (Алтайский край, Россия) (67 км)
Погода в Усть-Калманке (Алтайский край, Россия) (83 км)
Погода в Усть-Кане (Алтай, Россия) (96 км)
Погода в Змеиногорске (Алтайский край, Россия) (101 км)
Погода в Усть-Чарышской Пристани (Алтайский край, Россия) (114 км)
Погода в Белокурихе (Алтайский край, Россия) (117 км)
Погода в Риддере (Восточно-Казахстанская область, Казахстан) (117 км)
Погода в Шипуново (Алтайский край, Россия) (125 км)
Погода в Секисовке (Восточно-Казахстанская область, Казахстан) (136 км)

Пояснения к столбцам:

Ветер - указаны скорость ветра в м/с - средняя за 10 мин, порывы в срок и между сроками (в фигурных скобках) и направление, откуда дует ветер: С - северный, СВ - северо-восточный, В - восточный, ЮВ - юго-восточный, Ю - южный, ЮЗ - юго-западный, З - западный, СЗ - северо-западный.
Видимость - горизонтальная дальность видимости в метрах или километрах. При видимости от 1 до 10 км при отсутствии осадков обычно наблюдается дымка, при ухудшении видимости до 1 км и менее - туман. В сухую погоду видимость может ухудшаться дымом, пылью или мглою.
Явления - указаны атмосферные явления, наблюдавшиеся в срок или в последний час перед сроком; фигурными скобками обозначены явления, наблюдавшиеся между сроками (за 1-3 часа до срока); квадратными скобками обозначены град или гололедные отложения с указанием их диаметра в мм.
Облачность - указаны через наклонную черту общая и нижняя облачность в баллах и высота нижней границы облаков в метрах; квадратными скобками обозначены формы облаков: Ci - перистые, Cs - перисто-слоистые, Cc - перисто-кучевые, Ac - высококучевые, As - высокослоистые, Sc - слоисто-кучевые, Ns - слоисто-дождевые, Cu - кучевые, Cb - кучево-дождевые. Подробнее классификацию облаков см. в Атласе облаков (PDF).
T - Температура воздуха - температура, измеренная на высоте 2 м над землей.
Td - Температура точки росы - температура, при понижении до которой содержащийся в воздухе водяной пар достигнет насыщения.
f - Относительная влажность воздуха - влажноcть воздуха, измеренная на высоте 2 м над землей.
Te - Эффективная температура - температура, которую ощущает одетый по сезону человек в тени. Характеристика душности погоды. При расчете учитывается влияние влажности воздуха и скорости ветра на теплоощущения человека.
Tes - Эффективная температура на солнце - температура, которую ощущает человек, с поправкой на солнечный нагрев. Характеристика знойности погоды. Зависит от высоты солнца над горизонтом, облачности и скорости ветра. Ночью, в пасмурную погоду, а также при ветре 12 м/с и более поправка равна нулю.
P - Атмосферное давление - приведенное к уровню моря атмосферное давление.
Po - Атмосферное давление - измеренное на уровне метеостанции атмосферное давление.
Tmin - Минимальная температура - минимум температуры воздуха на высоте 2 м над землей.
Tmax - Максимальная температура - максимум температуры воздуха на высоте 2 м над землей.
R - Количество осадков - Количество выпавших осадков за период времени, мм. При наведении курсора мыши на число - период времени, за который выпало указанное количество осадков.
R24 - Количество осадков - Количество выпавших осадков за 24 часа, мм.
S - Снежный покров - Высота снежного покрова, см. При наведении курсора мыши на число - состояние снежного покрова и степень покрытия местности в баллах.